ATLAS 5 CENTAUR DEB, 44106

Orbit data source: Space-Track

ATLAS 5 CENTAUR DEB, 44106 is space debris in HEO originally from a launch on Wed, 17 Sep 2014 UTC launched from the Air Force Eastern Test Range (AFETR). Debris objects in space refer to the collection of defunct objects orbiting the Earth. Examples of debris include non-operational satellites, rocket bodies, and fragments generated from explosions, collisions, or faulty payload assembly.

Loading next visibility...
Identifier
44106, 2014-055CB
Orbit
HEO
Country
Flag of USUS
Related business
Flag of USUnited Launch Alliance/Lockheed Martin (US)
Manufacturer
Unknown
Mission
Spacecraft
Bus & Motor
Unknown
Mass
Unknown
Launch date (UTC)
2014-09-17 (12 years ago)
Launch vehicle
Unknown
Launch site
Air Force Eastern Test Range (AFETR)
Object type
Payload
Rocket body
Debris
Shape & HBR
Unknown shape, 1.1 m
Radar Cross Section
Medium (>0.1 m² and <1 m²)

Expand to show TLE details & history
Last TLE update: 3 days ago

TLE from 3 days ago
0 ATLAS 5 CENTAUR DEB
1 44106U 14055CB  26170.76051870 -.00000050  00000-0  00000-0 0  9996
2 44106  20.1129 142.6219 4806507 166.2035 213.9541  1.84988663 49797
Epoch: 2026-06-19T18:15Z
TLE epoch observation values (Epoch: 2026-06-19T18:15:08.815Z)
Latitude
-0.00001°
Longitude
-39.17797°
Altitude
34,037.663 km
Speed
2.346 km/s
True Right ascension
09h 30m 22s
True Declination
0° 00' 00"
Sunlit
Object was in daylight at epoch
Visualization orbit readout
Latitude
Unknown
Longitude
Unknown
Altitude
Unknown
Speed
Unknown
Apparent Right ascension
Unknown
Apparent Declination
Unknown
Sunlit
N/A
Visualization observer readout
Local Sidereal Time
23:20:40
Azimuth
Unknown
Elevation
Unknown
Doppler factor
Unknown
Orbital elements
Apogee altitude
35,128.831 km
Perigee altitude
8,180.742 km
Semi-major axis
28,032.924 km
Eccentricity
0.48065
Inclination
20.1129°
RAAN
142.6219°
Arg. of periapsis
166.2035°
True anomaly
193.82301°
Mean anomaly
213.9541°
Eccentric anomaly
203.13428°
Mean motion
0.46242 °/min
Orbital period
778.51 mins
BSTAR
0
Loading maneuver chart data...
Computing Atmospheric mass density...

Documentation

Showing up to 5 results
|